Voltar ao catálogo

COSMOS 1275 DEB

AtivoPO
NORAD 12742·DEBRIS·🇷🇺 Russia

Lançado Jun 4, 1981 de Plesetsk Cosmodrome

Loading…

Próximas Passagens (próximas 24 horas)

TLE

AtualizadoSource: Space-Track

Época: Sep 14, 2026, 14:29 UTC

1 12742U 81053CK  26257.60361291  .00000085  00000-0  73646-4 0  9996
2 12742  82.9491 207.8554 0048645  45.1589  78.9345 13.73878123261111

Acompanhe COSMOS 1275 DEB em tempo real com AllMySat

Download on the App Store